TimeCDT,TemperatureF,Dew PointF,Humidity,Sea Level PressureIn,VisibilityMPH,Wind Direction,Wind SpeedMPH,Gust SpeedMPH,PrecipitationIn,Events,Conditions,WindDirDegrees,DateUTC
1:54 AM,35.1,30.0,82,30.10,10.0,Calm,Calm,-,0.00,Rain,Light Rain,0,2013-05-10 06:54:00
2:54 AM,35.1,30.9,85,30.09,10.0,North,9.2,-,0.00,,Overcast,360,2013-05-10 07:54:00
3:54 AM,34.0,30.0,85,30.09,10.0,North,8.1,16.1,N/A,,Overcast,360,2013-05-10 08:54:00
4:16 AM,33.8,30.2,87,30.05,10.0,North,8.1,-,N/A,,Overcast,360,2013-05-10 09:16:00
4:54 AM,34.0,30.0,85,30.09,10.0,NNE,9.2,-,N/A,,Overcast,20,2013-05-10 09:54:00
5:01 AM,33.8,30.2,87,30.05,10.0,North,8.1,-,N/A,,Overcast,360,2013-05-10 10:01:00
5:54 AM,33.1,28.0,82,30.09,10.0,North,11.5,-,N/A,,Overcast,10,2013-05-10 10:54:00
8:54 AM,37.9,28.9,70,30.10,10.0,North,15.0,-,N/A,,Clear,350,2013-05-10 13:54:00
9:54 AM,41.0,28.0,60,30.08,10.0,North,8.1,-,N/A,,Clear,360,2013-05-10 14:54:00
10:54 AM,46.0,28.0,50,30.07,10.0,North,13.8,17.3,N/A,,Clear,360,2013-05-10 15:54:00
12:54 PM,53.1,23.0,31,30.03,10.0,North,10.4,19.6,N/A,,Clear,360,2013-05-10 17:54:00
1:54 PM,55.9,21.0,26,30.02,10.0,NNE,10.4,-,N/A,,Clear,20,2013-05-10 18:54:00
2:54 PM,57.9,21.9,25,30.00,10.0,NNE,12.7,16.1,N/A,,Clear,30,2013-05-10 19:54:00
3:54 PM,59.0,18.0,20,29.99,10.0,NNW,5.8,-,N/A,,Clear,340,2013-05-10 20:54:00
4:54 PM,57.9,18.0,21,29.96,10.0,ENE,3.5,-,N/A,,Clear,70,2013-05-10 21:54:00
5:54 PM,59.0,18.0,20,29.94,10.0,Calm,Calm,-,N/A,,Clear,0,2013-05-10 22:54:00
6:54 PM,57.9,21.9,25,29.93,10.0,East,4.6,-,N/A,,Clear,90,2013-05-10 23:54:00
7:54 PM,52.0,28.9,41,29.94,10.0,East,5.8,-,N/A,,Clear,90,2013-05-11 00:54:00
8:54 PM,48.0,33.1,56,29.94,10.0,SE,6.9,-,N/A,,Clear,140,2013-05-11 01:54:00
9:54 PM,44.1,35.1,71,29.95,10.0,SSE,8.1,-,N/A,,Clear,150,2013-05-11 02:54:00
10:54 PM,43.0,35.1,74,29.94,10.0,SE,4.6,-,N/A,,Clear,140,2013-05-11 03:54:00
11:42 PM,41.0,35.6,81,29.90,10.0,South,4.6,-,N/A,,Mostly Cloudy,170,2013-05-11 04:42:00
11:54 PM,41.0,35.1,79,29.93,10.0,South,4.6,-,N/A,,Scattered Clouds,170,2013-05-11 04:54:00